STARLINK-11252 [DTC] (61051 NORAD) Tracking and Keplerian Element Data

This shows tracking and keplerian element data for the satellite.

Feedback or suggestion? Click here.




ElementValue
Catalog61051
NameSTARLINK-11252 [DTC]
Epoch Orbit481
Epoch Day286.51149916
Epoch Year2024
RAAN321.4125
Inclination53.1542
Eccentricity0.0001208
Argument of Perigee103.8184
Mean Anonmoly256.2971
Mean Motion15.76767304
Decay Rate0.0005103
L11 61051U 24164B 24286.51149916 .00051030 00000+0 31338-3 0 9997
L22 61051 53.1542 321.4125 0001208 103.8184 256.2971 15.76767304 4810



Live tracking and technical data element details for STARLINK-11252 [DTC] (NORAD 61051). STARLINK-11252 [DTC] can be tracked NOW for your location showing map with azimuth and elevation plus other details from your city location.







IsCatalogInMostPopularTable: catalog: 61051, numindb: 28
Update: records affected: 1



GetName: 61051 STARLINK-11252 [DTC]

Hit Count: updated at: Fri, 06 Dec 2024 11:52:35 GMT